15min,AgWx,beryljct,423,09JUL2018:00:00:00,68.8,12.95,65.7,64.2,66.1,67.7,64.2,65,69,60,1.405,53.9,54.6,53.2,4.932,4.5,292,16,5.3,0.00010,0.00018,82.3,81.3,11,0,0,65.4,13.84,0.00,0.00
15min,AgWx,beryljct,423,09JUL2018:00:15:00,68.1,12.96,64.7,65.2,64.5,65.5,63.0,66,72,63,1.332,53.0,54.0,52.2,5.919,5.5,322,7.6,6.8,0.00014,0.00022,82.0,81.3,11,0,0,63.4,13.84,0.00,0.00
15min,AgWx,beryljct,423,09JUL2018:00:30:00,67.6,12.95,65.0,65.3,64.9,65.5,64.5,64,65,63,1.352,52.5,52.7,52.2,5.174,5.3,322,6.9,6.3,0.00015,0.00024,81.7,81.2,11,0,0,63.7,13.84,0.00,0.00
15min,AgWx,beryljct,423,09JUL2018:00:45:00,67.5,12.93,67.0,67.2,66.7,67.6,65.2,60,64,57,1.344,52.4,52.7,51.8,4.845,5.5,304,9.5,6.9,0.00021,0.00032,81.5,81.1,11,0,0,65.2,13.84,0.00,0.00
15min,AgWx,beryljct,423,09JUL2018:01:00:00,67.6,12.93,66.8,66.9,66.8,67.3,66.5,60,61,59,1.325,52.4,52.7,52.1,4.472,5.0,301,7.8,6.2,0.00018,0.00028,81.2,81.0,11,0,0,65.3,13.84,0.00,0.00
15min,AgWx,beryljct,423,09JUL2018:01:15:00,67.5,12.94,66.4,65.9,66.4,67.0,65.8,61,63,59,1.337,52.5,52.9,52.0,4.691,4.4,304,8.8,5.0,0.00012,0.00021,80.9,80.9,11,0,0,64.8,13.84,0.00,0.00
15min,AgWx,beryljct,423,09JUL2018:01:30:00,67.2,12.94,65.5,64.4,65.6,66.2,64.2,63,68,61,1.354,52.5,53.6,52.1,5.349,3.3,280,65,6.8,0.00002,0.00006,80.6,80.8,11,0,0,63.9,13.84,0.00,0.00
15min,AgWx,beryljct,423,09JUL2018:01:45:00,67.0,12.92,66.3,64.7,66.2,68.2,64.5,59,65,54,1.289,51.5,52.5,50.8,3.836,3.8,180,9.4,5.7,0.00009,0.00017,80.4,80.7,11,0,0,64.4,13.84,0.00,0.00
15min,AgWx,beryljct,423,09JUL2018:02:00:00,66.3,12.92,63.5,63.9,63.5,64.7,62.6,66,69,62,1.270,51.8,52.7,50.9,5.152,4.0,181,6.7,5.2,0.00005,0.00010,80.2,80.6,11,0,0,62.1,13.84,0.00,0.00
15min,AgWx,beryljct,423,09JUL2018:02:15:00,65.7,12.92,63.5,63.0,63.6,63.9,62.9,63,64,62,1.254,50.8,51.1,50.4,5.196,5.2,170,4.6,6.6,0.00015,0.00023,79.9,80.5,11,0,0,62.3,13.84,0.00,0.00
15min,AgWx,beryljct,423,09JUL2018:02:30:00,65.2,12.92,62.8,63.7,62.6,63.7,62.2,63,64,60,1.213,50.0,50.6,49.7,5.086,4.5,177,5.8,6.0,0.00009,0.00016,79.7,80.4,11,0,0,61.6,13.84,0.00,0.00
15min,AgWx,beryljct,423,09JUL2018:02:45:00,65.2,12.92,65.3,65.6,64.9,65.7,63.7,59,60,57,1.260,50.2,50.8,49.7,4.889,5.0,166,6.7,6.7,0.00017,0.00027,79.4,80.3,11,0,0,64.1,13.84,0.00,0.00
15min,AgWx,beryljct,423,09JUL2018:03:00:00,65.6,12.91,64.9,62.9,65.1,65.7,62.9,60,67,58,1.301,50.8,51.9,50.4,3.573,4.5,153,10,6.3,0.00013,0.00022,79.2,80.2,11,0,0,64.1,13.84,0.00,0.00
15min,AgWx,beryljct,423,09JUL2018:03:15:00,64.9,12.91,60.4,59.1,60.9,63.0,59.0,73,79,66,1.348,52.1,52.8,51.6,3.88,4.0,111,9.2,4.5,-0.00001,0.00002,79.0,80.1,11,0,0,60.6,13.84,0.00,0.00
15min,AgWx,beryljct,423,09JUL2018:03:30:00,63.9,12.91,59.3,59.4,59.2,59.7,58.7,80,81,78,1.358,53.0,53.2,52.5,5.217,3.3,159,38,5.7,-0.00009,-0.00010,78.7,80.0,11,0,0,58.5,13.84,0.00,0.00
15min,AgWx,beryljct,423,09JUL2018:03:45:00,63.3,12.9,60.8,61.7,60.4,61.7,59.5,74,78,68,1.283,52.2,52.8,51.2,4.954,4.6,204,4.8,5.6,0.00001,0.00004,78.6,79.9,11,0,0,59.4,13.84,0.00,0.00
15min,AgWx,beryljct,423,09JUL2018:04:00:00,63.4,12.9,64.8,64.7,64.3,66.0,61.8,63,68,60,1.353,51.3,52.7,50.9,0.723,3.6,212,5.9,5.2,0.00005,0.00010,78.3,79.8,11,0,0,62.6,13.84,0.00,0.00
15min,AgWx,beryljct,423,09JUL2018:04:15:00,63.7,12.89,62.2,61.9,62.5,64.9,60.7,70,76,63,1.340,52.7,53.3,52.0,1.293,2.8,131,55,6.1,-0.00007,-0.00006,78.1,79.7,11,0,0,62.2,13.84,0.00,0.00
15min,AgWx,beryljct,423,09JUL2018:04:30:00,63.5,12.88,61.1,60.4,61.1,61.9,60.2,74,78,71,1.397,53.0,53.6,52.3,1.666,3.4,123,41,6.4,-0.00005,-0.00004,77.9,79.5,11,0,0,60.7,13.84,0.00,0.00
15min,AgWx,beryljct,423,09JUL2018:04:45:00,63.3,12.9,61.0,60.9,60.8,61.6,60.2,74,79,69,1.332,52.7,53.7,51.3,3.003,2.7,184,25,5.0,0.00020,0.00035,77.7,79.4,11,0,0,60.1,13.84,0.00,0.00
15min,AgWx,beryljct,423,09JUL2018:05:00:00,63.3,12.88,62.7,61.9,62.5,63.9,60.9,66,73,61,1.307,51.1,52.4,50.0,2.455,3.0,254,57,7.7,0.00030,0.00052,77.5,79.3,11,0,0,61.5,13.84,0.00,0.00
15min,AgWx,beryljct,423,09JUL2018:05:15:00,63.3,12.89,61.5,62.3,61.3,62.3,60.9,69,72,65,1.255,51.0,51.9,50.5,3.42,3.6,306,28,4.8,0.00032,0.00056,77.3,79.2,11,1,0,60.9,13.84,0.00,0.00
15min,AgWx,beryljct,423,09JUL2018:05:30:00,63.2,12.89,61.9,61.5,61.9,62.6,60.3,65,71,61,1.272,50.0,51.6,48.7,1.162,3.3,349,30,6.0,0.00035,0.00060,77.1,79.1,11,2,0,61.2,13.84,0.00,0.00
15min,AgWx,beryljct,423,09JUL2018:05:45:00,62.9,12.9,60.3,59.2,60.4,61.4,59.2,70,75,66,1.254,50.7,51.8,49.5,2.894,2.3,37,16,4.9,0.00027,0.00042,77.0,79.0,11,11,0,60.4,13.84,0.00,0.00
15min,AgWx,beryljct,423,09JUL2018:06:00:00,62.6,12.91,60.1,60.1,59.8,61.1,58.9,69,77,63,1.193,49.7,51.9,48.3,3.595,2.0,0.7,65,4.6,0.00036,0.00051,76.8,78.9,11,29,0,60.7,13.84,0.00,0.00
15min,AgWx,beryljct,423,09JUL2018:06:15:00,62.3,12.92,59.7,58.8,59.8,60.9,58.7,70,76,64,1.281,50.0,51.6,48.6,3.551,2.5,64,74,4.3,0.00043,0.00060,76.6,78.8,11,35,0,61.2,13.84,0.00,0.00
15min,AgWx,beryljct,423,09JUL2018:06:30:00,61.9,12.93,59.5,58.5,59.4,61.0,58.3,73,79,62,1.271,50.5,51.9,47.7,1.951,2.7,355,96,4.3,0.00047,0.00064,76.4,78.7,11,43,0,61.3,13.84,0.00,0.00
15min,AgWx,beryljct,423,09JUL2018:06:45:00,62.0,12.92,60.7,61.4,60.3,61.4,58.6,72,80,62,1.405,51.4,54.6,48.3,0,1.1,163,51,3.0,0.00086,0.00098,76.2,78.6,11,130,0,69.9,13.84,0.00,0.00
15min,AgWx,beryljct,423,09JUL2018:07:00:00,63.1,12.9,63.1,64.0,62.8,64.2,61.5,69,77,60,1.272,52.6,55.2,49.4,1.929,1.6,205,5.1,2.6,0.00095,0.00111,76.1,78.5,11,126,0,77.0,13.84,0.00,0.00
15min,AgWx,beryljct,423,09JUL2018:07:15:00,64.3,12.92,63.8,63.3,63.8,64.4,63.1,71,80,63,1.567,54.0,57.2,51.1,1.447,1.3,189,49,2.7,0.00104,0.00119,75.9,78.4,12,143,0,74.6,13.84,0.00,0.00
15min,AgWx,beryljct,423,09JUL2018:07:30:00,66.3,12.95,65.4,66.3,65.1,66.3,63.3,72,79,64,1.414,55.9,57.9,53.8,2.455,1.8,87,1.7,2.7,0.00180,0.00203,75.8,78.2,12,281,0,86.7,13.83,0.00,0.00
15min,AgWx,beryljct,423,09JUL2018:07:45:00,69.0,13.01,67.7,68.7,67.5,68.7,66.4,71,76,62,1.668,57.9,60.2,53.8,2.433,1.7,97,14,3.1,0.00212,0.00237,75.7,77.6,12,323,0,92.9,13.83,0.00,0.00
15min,AgWx,beryljct,423,09JUL2018:08:00:00,71.9,13.1,70.4,71.5,70.2,71.8,68.7,67,71,62,1.624,58.6,61.2,56.7,0,1.1,117,4.0,2.2,0.00270,0.00296,75.6,78.0,12,410,0,102.1,13.83,0.00,0.00
15min,AgWx,beryljct,423,09JUL2018:08:15:00,75.3,13.22,72.5,73.0,72.5,73.1,71.5,59,64,54,1.724,57.5,59.3,55.3,2.039,0.7,114,4.3,2.0,0.00315,0.00342,75.6,77.9,11,471,0,111.4,13.83,0.00,0.00
15min,AgWx,beryljct,423,09JUL2018:08:30:00,78.1,13.39,73.4,74.1,73.5,74.1,73.0,59,67,53,1.701,58.5,61.3,55.5,2.981,2.5,124,7.5,3.4,0.00364,0.00411,75.5,77.8,11,525,0,110.2,13.83,0.00,0.00
15min,AgWx,beryljct,423,09JUL2018:08:45:00,80.0,13.55,74.6,75.2,74.7,75.2,74.0,56,62,50,1.649,57.8,60.3,54.7,1.688,2.6,122,10,3.9,0.00402,0.00456,75.6,77.7,11,572,0,109.2,13.82,0.00,0.00
15min,AgWx,beryljct,423,09JUL2018:09:00:00,82.0,13.72,76.5,77.6,76.5,77.7,75.3,48,59,40,1.394,55.4,60.3,51.7,1.513,1.6,57,16,3.6,0.00436,0.00484,75.7,77.6,11,618,0,113.9,13.82,0.00,0.00
15min,AgWx,beryljct,423,09JUL2018:09:15:00,84.2,13.86,78.5,80.1,78.5,80.9,77.6,43,55,35,1.594,54.3,61.2,50.2,0,1.6,42,12,3.3,0.00475,0.00529,75.8,77.6,11,662,0,115.9,13.81,0.00,0.00
15min,AgWx,beryljct,423,09JUL2018:09:30:00,86.7,13.81,79.9,80.8,80.1,81.0,79.3,42,49,34,1.222,54.6,59.3,49.9,0.789,1.3,46,13,2.5,0.00510,0.00563,76.0,77.5,11,708,0,121.9,13.81,0.00,0.00
15min,AgWx,beryljct,423,09JUL2018:09:45:00,88.6,13.82,80.5,80.9,80.8,81.2,80.5,45,54,35,1.749,57.5,62.7,50.8,2.192,2.0,84,11,3.6,0.00548,0.00611,76.2,77.4,11,746,0,123.3,13.81,0.00,0.00
15min,AgWx,beryljct,423,09JUL2018:10:00:00,89.6,13.8,81.5,82.4,81.6,82.6,80.8,46,57,34,1.525,58.8,64.7,51.1,1.644,2.4,73,10,3.7,0.00575,0.00644,76.5,77.3,11,774,0,119.9,13.81,0.00,0.00
15min,AgWx,beryljct,423,09JUL2018:10:15:00,91.1,13.72,83.2,83.9,83.4,84.3,82.4,40,48,33,1.656,56.8,61.8,51.3,0.745,1.0,68,6.7,2.5,0.00608,0.00664,76.8,77.3,11,829,0,127.5,13.80,0.00,0.00
15min,AgWx,beryljct,423,09JUL2018:10:30:00,92.1,13.72,83.3,83.6,83.6,84.2,82.9,43,52,34,1.720,58.7,64.4,51.9,2.784,2.2,90,11,4.5,0.00547,0.00615,77.2,77.2,11,712,0,122.2,13.80,0.00,0.00
15min,AgWx,beryljct,423,09JUL2018:10:45:00,92.0,13.8,83.6,84.4,83.8,84.6,82.9,46,58,32,1.702,60.5,66.7,51.7,4.341,3.7,88,20,6.1,0.00593,0.00682,77.6,77.2,11,764,0,115.0,13.80,0.00,0.00
15min,AgWx,beryljct,423,09JUL2018:11:00:00,91.8,13.72,84.1,84.8,84.4,84.9,84.0,49,60,38,1.843,63.1,68.9,56.2,2.828,3.4,91,29,5.9,0.00580,0.00662,78.1,77.2,11,742,0,114.1,13.81,0.00,0.00
15min,AgWx,beryljct,423,09JUL2018:11:15:00,92.0,13.72,85.7,87.4,85.7,87.4,84.6,43,54,34,1.732,60.4,66.3,54.1,2.674,3.6,113,43,7.4,0.00707,0.00805,78.6,77.2,11,914,0,119.1,13.81,0.00,0.00
15min,AgWx,beryljct,423,09JUL2018:11:30:00,92.9,13.71,88.1,88.6,88.3,89.0,87.3,35,45,26,1.447,56.9,63.1,49.8,7.673,4.4,192,33,8.7,0.00751,0.00873,79.2,77.2,11,939,0,122.0,13.81,0.00,0.00
15min,AgWx,beryljct,423,09JUL2018:11:45:00,93.7,13.72,89.1,89.6,89.3,89.9,88.6,31,37,26,1.589,54.9,59.2,49.8,6.73,6.3,194,22,10.9,0.00802,0.00963,79.7,77.3,11,967,0,116.5,13.80,0.00,0.00
15min,AgWx,beryljct,423,09JUL2018:12:00:00,94.0,13.31,87.8,87.3,88.3,89.9,86.1,35,47,27,1.644,57.0,64.2,50.2,8.07,7.6,170,25,13.3,0.00825,0.00998,80.2,77.3,11,997,0,114.2,13.80,0.00,0.00
15min,AgWx,beryljct,423,09JUL2018:12:15:00,94.3,13.27,87.8,87.4,88.1,89.6,86.6,35,42,28,1.555,56.6,61.4,50.7,8.51,7.7,165,16,14.1,0.00852,0.01028,80.8,77.4,11,1035,0,113.4,13.80,0.00,0.00
15min,AgWx,beryljct,423,09JUL2018:12:30:00,93.7,13.31,85.6,84.8,86.1,87.8,83.8,39,48,32,1.530,57.8,61.9,53.6,10.83,9.5,154,16,13.3,0.00674,0.00851,81.5,77.5,11,761,0,102.5,13.81,0.00,0.00
15min,AgWx,beryljct,423,09JUL2018:12:45:00,93.2,13.31,88.1,88.9,87.9,90.1,84.8,36,47,27,1.302,57.6,63.3,51.0,6.796,8.4,185,40,22.2,0.00829,0.01012,82.0,77.6,11,991,0,110.2,13.81,0.00,0.00
15min,AgWx,beryljct,423,09JUL2018:13:00:00,93.1,13.3,88.1,88.7,88.4,90.2,86.7,32,37,27,1.701,54.9,59.0,50.6,5.919,7.0,205,38,12.9,0.00497,0.00646,82.6,77.7,11,484,0,101.8,13.81,0.00,0.00
15min,AgWx,beryljct,423,09JUL2018:13:15:00,93.0,13.32,87.1,87.3,87.4,89.6,85.6,37,44,28,1.878,57.8,62.5,51.1,8.15,8.0,164,25,12.3,0.00784,0.00955,83.2,77.8,11,954,0,105.9,13.81,0.00,0.00
15min,AgWx,beryljct,423,09JUL2018:13:30:00,92.5,13.34,84.4,84.1,84.9,87.5,81.9,42,47,33,1.332,59.1,63.1,52.2,13.48,9.4,147,17,14.4,0.00480,0.00636,83.6,77.9,11,458,0,97.2,13.81,0.00,0.00
15min,AgWx,beryljct,423,09JUL2018:13:45:00,90.0,13.39,83.1,82.8,83.4,86.1,81.7,39,46,33,1.540,55.5,59.3,52.3,7.563,10.8,159,16,18.4,0.00353,0.00522,84.1,78.1,11,212,0,87.8,13.82,0.00,0.00
15min,AgWx,beryljct,423,09JUL2018:14:00:00,88.1,13.43,84.1,84.1,84.1,85.8,82.6,36,41,31,1.578,54.4,56.9,51.9,9.97,10.7,179,29,17.5,0.00361,0.00535,84.5,78.3,11,212,0,88.2,13.82,0.00,0.00
15min,AgWx,beryljct,423,09JUL2018:14:15:00,86.0,13.4,76.3,75.2,77.2,83.2,75.1,50,55,42,1.465,57.1,60.1,54.6,19.93,11.9,263,27,24.8,0.00282,0.00418,84.8,78.4,11,180,0,82.1,13.82,0.01,0.00
15min,AgWx,beryljct,423,09JUL2018:14:30:00,82.6,13.37,73.6,73.8,73.8,75.1,72.8,51,55,47,1.491,54.5,55.7,52.7,12.41,15.7,266,11,23.8,0.00272,0.00425,84.9,78.6,11,134,0,76.2,13.83,0.00,0.00
15min,AgWx,beryljct,423,09JUL2018:14:45:00,80.1,13.34,73.6,73.9,73.5,74.7,72.5,51,55,46,1.367,54.4,55.8,52.4,15.39,16.8,260,10,24.0,0.00274,0.00431,85.0,78.8,11,129,0,75.8,13.83,0.00,0.00
15min,AgWx,beryljct,423,09JUL2018:15:00:00,78.9,13.31,75.8,76.4,75.6,77.2,73.5,43,49,39,1.341,51.5,53.2,49.9,7.453,12.6,267,12,18.8,0.00276,0.00432,85.0,78.9,11,125,0,77.8,13.83,0.00,0.00
15min,AgWx,beryljct,423,09JUL2018:15:15:00,78.7,13.35,76.2,76.5,76.2,76.6,75.9,44,46,41,1.352,52.6,53.6,51.4,8.31,9.7,262,9.7,13.9,0.00223,0.00348,84.9,79.1,11,97,0,78.2,13.83,0.00,0.00
15min,AgWx,beryljct,423,09JUL2018:15:30:00,78.7,13.33,76.4,73.6,76.7,77.7,73.6,44,58,40,1.645,53.3,58.0,51.6,7.322,9.0,282,22,15.3,0.00201,0.00319,84.8,79.2,11,75,0,78.2,13.83,0.00,0.00
15min,AgWx,beryljct,423,09JUL2018:15:45:00,77.6,13.28,71.8,72.1,72.1,73.4,71.4,60,63,58,1.604,57.6,58.4,56.7,8.9,9.3,326,17,15.3,0.00141,0.00221,84.6,79.4,11,60,0,73.2,13.83,0.00,0.00
15min,AgWx,beryljct,423,09JUL2018:16:00:00,76.8,13.25,73.1,72.5,73.0,74.0,72.1,57,61,53,1.653,56.8,58.2,55.4,3.902,6.7,318,11,9.4,0.00124,0.00193,84.4,79.5,11,55,0,74.1,13.83,0.00,0.00
15min,AgWx,beryljct,423,09JUL2018:16:15:00,76.3,13.27,73.4,75.0,73.1,75.0,72.0,58,62,50,1.475,57.3,58.7,55.0,3.223,3.9,338,21,6.1,0.00095,0.00138,84.2,79.6,11,61,0,74.4,13.83,0.00,0.00
15min,AgWx,beryljct,423,09JUL2018:16:30:00,76.3,13.31,74.0,72.3,74.3,76.2,72.3,55,67,47,1.813,57.2,60.9,54.2,4.253,2.4,28,56,4.3,0.00090,0.00121,84.0,79.7,11,74,0,75.6,13.83,0.00,0.00
15min,AgWx,beryljct,423,09JUL2018:16:45:00,76.1,13.28,72.8,73.1,72.7,73.4,71.7,62,68,57,1.662,58.9,61.0,57.1,3.113,4.2,234,4.8,5.3,0.00119,0.00161,83.8,79.8,11,101,0,74.8,13.83,0.00,0.00
15min,AgWx,beryljct,423,09JUL2018:17:00:00,76.2,13.34,74.4,75.4,74.2,75.4,73.2,57,60,53,1.586,58.1,59.5,56.8,0.68,2.5,238,5.1,4.8,0.00118,0.00152,83.6,79.9,11,131,0,77.3,13.83,0.00,0.00
15min,AgWx,beryljct,423,09JUL2018:17:15:00,76.8,13.41,76.3,75.9,76.3,76.8,75.5,53,59,47,1.659,57.6,60.3,54.9,6.094,3.6,204,25,8.1,0.00142,0.00190,83.4,79.9,11,159,0,80.1,13.83,0.00,0.00
15min,AgWx,beryljct,423,09JUL2018:17:30:00,77.4,13.42,75.8,75.8,75.9,76.1,75.6,54,56,51,1.558,57.9,59.0,56.5,6.116,5.2,188,10,7.0,0.00153,0.00217,83.3,80.0,11,165,0,79.2,13.83,0.00,0.00
15min,AgWx,beryljct,423,09JUL2018:17:45:00,77.7,13.34,75.9,75.5,75.9,76.5,75.2,52,56,49,1.578,56.9,58.2,55.7,6.138,5.4,198,16,8.1,0.00138,0.00205,83.1,80.0,11,146,0,79.0,13.83,0.00,0.00
15min,AgWx,beryljct,423,09JUL2018:18:00:00,77.7,13.31,74.5,73.5,74.8,76.2,72.8,57,66,50,1.736,58.4,60.8,55.8,2.696,3.6,158,28,5.3,0.00084,0.00126,83.0,80.0,11,117,0,77.9,13.83,0.00,0.00
15min,AgWx,beryljct,423,09JUL2018:18:15:00,77.1,13.33,73.3,73.1,73.3,74.1,72.7,63,66,58,1.642,59.9,60.8,58.0,5.02,4.1,139,11,6.3,0.00059,0.00096,82.8,80.1,11,102,0,76.3,13.83,0.00,0.00
15min,AgWx,beryljct,423,09JUL2018:18:30:00,76.3,13.29,73.1,73.2,73.1,73.5,72.8,61,64,58,1.761,58.9,60.0,57.9,3.288,3.2,116,18,4.3,0.00040,0.00071,82.7,80.1,11,87,0,75.4,13.83,0.00,0.00
15min,AgWx,beryljct,423,09JUL2018:18:45:00,75.8,13.23,74.2,74.5,74.1,75.5,73.0,58,65,49,1.730,58.3,60.9,55.2,0,2.4,131,5.3,3.4,0.00022,0.00047,82.6,80.1,11,73,0,75.7,13.83,0.00,0.00
15min,AgWx,beryljct,423,09JUL2018:19:00:00,75.4,13.21,73.4,73.1,73.6,74.6,72.7,61,70,56,1.722,59.5,62.6,57.4,1.162,0.3,126,4.2,1.3,-0.00017,-0.00015,82.5,80.1,11,60,0,75.5,13.83,0.00,0.00
15min,AgWx,beryljct,423,09JUL2018:19:15:00,74.9,13.18,72.3,71.0,72.5,73.9,71.0,64,71,56,1.828,59.6,61.0,57.2,0.68,2.4,309,73,3.4,0.00034,0.00051,82.4,80.1,11,42,0,73.5,13.83,0.00,0.00
15min,AgWx,beryljct,423,09JUL2018:19:30:00,74.1,13.16,72.8,72.7,72.6,74.4,71.0,62,71,52,1.694,58.6,61.0,55.6,8.05,1.2,304,9.9,9.7,0.00016,0.00026,82.3,80.0,11,24,0,71.7,13.83,0.00,0.00
15min,AgWx,beryljct,423,09JUL2018:19:45:00,73.6,13.14,72.0,71.7,72.1,72.8,71.6,64,68,62,1.682,59.4,60.4,58.4,4.867,6.0,276,13,8.3,0.00045,0.00062,82.2,80.0,11,10,0,71.2,13.83,0.00,0.00
15min,AgWx,beryljct,423,09JUL2018:20:00:00,72.9,13.13,70.2,69.7,70.4,71.7,69.3,69,72,63,1.764,59.6,60.1,58.6,1.425,3.3,312,7.9,5.3,0.00023,0.00034,82.0,80.0,11,3,0,69.5,13.83,0.00,0.00
15min,AgWx,beryljct,423,09JUL2018:20:15:00,71.9,13.12,69.8,68.5,69.9,71.9,68.5,70,72,64,1.716,59.6,60.0,59.1,4.319,3.4,306,6.1,4.4,0.00021,0.00032,81.8,80.0,11,1,0,68.0,13.83,0.00,0.00
15min,AgWx,beryljct,423,09JUL2018:20:30:00,71.0,13.11,69.2,70.4,69.0,70.5,68.3,70,72,66,1.686,58.9,59.2,58.7,1.82,3.2,299,8.8,4.2,0.00019,0.00029,81.6,80.0,11,0,0,67.6,13.83,0.00,0.00
15min,AgWx,beryljct,423,09JUL2018:20:45:00,70.4,13.11,68.5,68.9,68.6,70.4,67.4,72,75,66,1.675,59.1,59.4,58.5,1.688,1.3,46,76,2.9,0.00006,0.00010,81.5,79.9,11,0,0,66.9,13.84,0.00,0.00
15min,AgWx,beryljct,423,09JUL2018:21:00:00,69.9,13.1,69.0,66.6,69.2,71.7,66.6,68,77,59,1.675,58.2,59.2,56.5,2.083,2.2,187,15,3.3,0.00014,0.00023,81.2,79.9,12,0,0,67.4,13.84,0.00,0.00
15min,AgWx,beryljct,423,09JUL2018:21:15:00,69.5,13.08,68.5,68.0,68.3,70.9,66.3,69,76,60,1.645,57.7,58.7,55.6,0,1.3,233,14,3.4,0.00006,0.00011,81.0,79.9,12,0,0,66.9,13.84,0.00,0.00
15min,AgWx,beryljct,423,09JUL2018:21:30:00,69.2,13.08,69.7,71.4,69.2,71.7,67.7,64,70,54,1.416,56.3,58.0,53.9,0.438,0.9,240,8.8,2.2,0.00004,0.00007,80.8,79.8,12,0,0,66.0,13.84,0.00,0.00
15min,AgWx,beryljct,423,09JUL2018:21:45:00,69.0,13.07,69.2,66.2,69.7,73.3,66.2,61,73,49,1.594,55.3,57.3,53.0,0.263,1.5,130,66,5.3,0.00011,0.00019,80.6,79.8,12,0,0,66.6,13.84,0.00,0.00
15min,AgWx,beryljct,423,09JUL2018:22:00:00,68.4,13.07,67.7,66.9,67.5,69.4,66.0,68,73,60,1.521,56.4,57.2,54.9,4.757,2.0,83,40,4.8,0.00012,0.00020,80.4,79.7,12,0,0,64.9,13.84,0.00,0.00
15min,AgWx,beryljct,423,09JUL2018:22:15:00,67.9,13.06,66.3,64.3,66.6,68.5,64.3,69,76,63,1.560,56.2,56.7,54.9,1.776,2.9,62,26,5.3,0.00018,0.00027,80.2,79.7,12,0,0,65.0,13.84,0.00,0.00
15min,AgWx,beryljct,423,09JUL2018:22:30:00,67.0,13.06,63.0,62.2,63.2,64.3,62.2,79,83,76,1.562,56.8,57.2,56.6,2.938,2.0,144,27,3.4,0.00006,0.00010,80.0,79.6,12,0,0,62.1,13.84,0.00,0.00
15min,AgWx,beryljct,423,09JUL2018:22:45:00,66.1,13.06,62.4,62.9,62.2,63.0,61.5,81,84,77,1.516,56.4,56.7,55.6,2.302,2.3,192,9.6,3.7,0.00006,0.00010,79.7,79.6,12,0,0,61.2,13.84,0.00,0.00
15min,AgWx,beryljct,423,09JUL2018:23:00:00,65.5,13.05,64.3,66.4,63.7,66.5,61.9,74,81,64,1.425,55.2,56.1,54.0,5.853,4.6,188,14,7.8,0.00021,0.00029,79.5,79.5,12,0,0,62.4,13.84,0.00,0.00
15min,AgWx,beryljct,423,09JUL2018:23:15:00,65.6,13.04,66.0,66.6,65.8,66.6,65.2,61,64,59,1.312,52.1,54.1,51.7,6.007,6.9,188,9.1,10.3,0.00045,0.00060,79.3,79.5,12,0,0,64.5,13.84,0.00,0.00
15min,AgWx,beryljct,423,09JUL2018:23:30:00,66.5,13.04,69.4,69.9,68.9,69.9,66.6,54,59,53,1.323,51.8,52.1,51.5,4.209,6.3,203,9.1,10.0,0.00054,0.00073,79.1,79.4,12,0,0,67.0,13.84,0.00,0.00
15min,AgWx,bigpiney,439,09JUL2018:00:00:00,64.3,12.82,56.6,56.0,55.8,56.1,55.5,74,75,74,1.127,47.8,47.9,47.6,4.034,4.6,215,10,5.6,0.00016,0.00022,57.9,55.3,54,0,0,0.0,.,0.00,0.00
15min,AgWx,bigpiney,439,09JUL2018:00:15:00,63.4,12.8,60.2,59.3,57.1,59.3,56.0,71,74,64,1.109,47.7,48.0,47.2,4.56,4.4,240,13,6.4,0.00019,0.00026,57.9,55.4,54,0,0,0.0,.,0.00,0.00
15min,AgWx,bigpiney,439,09JUL2018:00:30:00,63.1,12.79,62.2,61.6,60.8,61.6,59.3,61,64,59,1.098,47.3,47.4,47.0,4.801,4.6,256,10,7.1,0.00029,0.00041,57.9,55.3,54,0,0,0.0,.,0.00,0.00
15min,AgWx,bigpiney,439,09JUL2018:00:45:00,63.3,12.79,62.3,62.2,61.9,62.3,61.6,57,59,56,1.076,46.7,47.1,46.4,4.231,4.7,249,11,6.5,0.00033,0.00047,57.8,55.4,54,0,0,0.0,.,0.00,0.00
15min,AgWx,bigpiney,439,09JUL2018:01:00:00,63.6,12.78,61.9,61.7,61.7,62.1,61.5,57,58,55,1.039,46.2,46.8,45.5,4.056,4.5,253,9.7,5.8,0.00033,0.00046,57.8,55.4,54,0,0,0.0,.,0.00,0.00
15min,AgWx,bigpiney,439,09JUL2018:01:15:00,63.7,12.77,57.6,58.4,60.6,61.7,58.4,58,64,55,1.062,45.7,46.2,45.4,2.192,3.4,235,17,4.6,0.00025,0.00036,57.8,55.4,54,0,0,0.0,.,0.00,0.00
15min,AgWx,bigpiney,439,09JUL2018:01:30:00,63.4,12.76,55.8,55.8,56.6,58.3,55.4,69,74,64,1.109,46.7,47.3,46.2,0.702,2.5,222,29,4.4,0.00011,0.00017,57.7,55.4,54,0,0,0.0,.,0.00,0.00
15min,AgWx,bigpiney,439,09JUL2018:01:45:00,62.6,12.75,54.7,54.8,55.2,55.8,54.8,74,75,73,1.092,47.0,47.7,46.7,3.464,2.7,226,34,5.4,0.00009,0.00014,57.7,55.4,54,0,0,0.0,.,0.00,0.00
15min,AgWx,bigpiney,439,09JUL2018:02:00:00,61.8,12.74,52.5,53.2,54.7,55.7,53.2,75,78,73,1.085,47.0,47.6,46.7,2.653,1.2,213,80,3.6,0.00001,0.00003,57.6,55.4,54,0,0,0.0,.,0.00,0.00
15min,AgWx,bigpiney,439,09JUL2018:02:15:00,60.9,12.73,57.8,56.2,54.3,56.2,52.4,77,83,70,1.094,47.3,48.4,46.3,2.389,1.6,346,71,2.9,0.00003,0.00006,57.6,55.4,54,0,0,0.0,.,0.00,0.00
15min,AgWx,bigpiney,439,09JUL2018:02:30:00,60.4,12.72,55.9,56.1,57.4,58.3,56.1,68,72,62,1.096,46.8,48.2,45.2,1.556,2.2,278,41,3.4,0.00010,0.00017,57.6,55.4,54,0,0,0.0,.,0.00,0.00
15min,AgWx,bigpiney,439,09JUL2018:02:45:00,60.4,12.71,57.6,57.2,56.3,57.3,55.7,72,75,70,1.133,47.3,48.4,46.4,3.047,2.1,240,31,3.2,0.00008,0.00012,57.5,55.4,54,0,0,0.0,.,0.00,0.00
15min,AgWx,bigpiney,439,09JUL2018:03:00:00,60.5,12.71,59.5,59.0,57.8,59.0,57.2,67,71,60,1.016,46.9,48.0,45.0,1.14,1.3,299,35,2.7,0.00005,0.00008,57.5,55.4,54,0,0,0.0,.,0.00,0.00
15min,AgWx,bigpiney,439,09JUL2018:03:15:00,60.7,12.69,58.6,58.2,58.6,59.1,58.0,63,70,59,1.048,45.9,48.2,44.9,2.653,1.9,4.7,28,3.8,0.00011,0.00017,57.4,55.4,54,0,0,0.0,.,0.00,0.00
15min,AgWx,bigpiney,439,09JUL2018:03:30:00,60.8,12.67,59.1,59.0,59.0,59.3,58.2,62,64,60,1.070,45.8,46.6,45.1,1.491,2.4,312,38,3.5,0.00015,0.00024,57.4,55.4,54,0,0,0.0,.,0.00,0.00
15min,AgWx,bigpiney,439,09JUL2018:03:45:00,61.0,12.67,56.0,55.8,57.2,59.1,55.8,70,76,62,1.150,47.5,48.3,46.1,3.683,3.3,248,9.2,4.6,0.00015,0.00022,57.3,55.4,54,0,0,0.0,.,0.00,0.00
15min,AgWx,bigpiney,439,09JUL2018:04:00:00,60.7,12.67,52.1,52.6,54.9,55.9,52.5,77,84,75,1.142,47.9,48.3,47.5,4.56,3.5,213,46,5.6,0.00010,0.00015,57.3,55.3,54,0,0,0.0,.,0.00,0.00
15min,AgWx,bigpiney,439,09JUL2018:04:15:00,59.9,12.66,53.1,53.1,52.9,53.2,52.4,83,86,79,1.093,47.7,48.4,46.9,3.223,3.5,169,18,5.2,0.00007,0.00010,57.2,55.4,54,0,0,0.0,.,0.00,0.00
15min,AgWx,bigpiney,439,09JUL2018:04:30:00,59.1,12.64,51.5,51.6,52.3,53.1,51.6,81,83,79,1.067,46.7,47.0,46.2,3.244,2.8,207,8.4,4.1,0.00006,0.00009,57.2,55.4,54,0,0,0.0,.,0.00,0.00
15min,AgWx,bigpiney,439,09JUL2018:04:45:00,58.3,12.64,53.8,53.4,52.3,53.4,51.5,82,84,78,1.090,47.1,47.5,46.3,4.516,3.7,246,6.7,5.3,0.00007,0.00011,57.2,55.3,54,1,0,0.0,.,0.00,0.00
15min,AgWx,bigpiney,439,09JUL2018:05:00:00,57.7,12.65,54.4,54.3,54.2,54.4,53.3,75,78,74,1.062,46.5,46.8,46.2,2.543,3.3,248,8.4,5.2,0.00012,0.00017,57.1,55.3,54,3,0,0.0,.,0.00,0.00
15min,AgWx,bigpiney,439,09JUL2018:05:15:00,57.4,12.65,53.4,53.3,53.9,54.5,53.2,74,75,73,1.030,45.8,46.2,45.3,3.814,3.1,233,9.8,3.8,0.00008,0.00022,57.1,55.3,54,9,0,0.0,.,0.00,0.00
15min,AgWx,bigpiney,439,09JUL2018:05:30:00,57.0,12.66,53.6,53.4,53.2,53.5,52.7,74,75,73,1.015,45.0,45.3,44.9,2.302,2.9,225,7.3,4.1,0.00007,0.00020,57.0,55.3,54,24,0,0.0,.,0.00,0.00
15min,AgWx,bigpiney,439,09JUL2018:05:45:00,56.9,12.67,56.0,55.7,55.0,56.2,53.4,70,73,65,1.033,45.3,46.1,44.5,0,1.4,286,27,2.5,0.00011,0.00019,57.0,55.3,54,44,0,0.0,.,0.00,0.00
15min,AgWx,bigpiney,439,09JUL2018:06:00:00,57.0,12.69,56.0,55.1,55.7,56.9,54.8,68,70,65,1.038,45.4,45.6,45.0,2.455,0.5,266,34,2.8,0.00022,0.00026,57.0,55.3,54,42,0,0.0,.,0.00,0.00
15min,AgWx,bigpiney,439,09JUL2018:06:15:00,57.4,12.76,56.4,56.5,56.8,57.8,55.1,66,70,63,1.051,45.6,46.8,45.0,2.192,2.3,284,59,3.9,0.00051,0.00068,56.9,55.3,54,101,0,0.0,.,0.00,0.00
15min,AgWx,bigpiney,439,09JUL2018:06:30:00,58.3,12.76,58.8,58.5,57.7,58.7,56.2,66,71,63,1.091,46.4,47.4,45.7,0.767,1.6,15,30,3.1,0.00074,0.00090,56.9,55.3,54,171,0,0.0,.,0.00,0.00
15min,AgWx,bigpiney,439,09JUL2018:06:45:00,59.5,12.81,58.3,58.2,58.5,58.9,58.2,68,73,63,1.208,48.2,49.8,46.2,2.587,1.4,254,28,2.8,0.00064,0.00077,56.8,55.2,54,99,0,0.0,.,0.00,0.00
15min,AgWx,bigpiney,439,09JUL2018:07:00:00,60.5,12.88,60.7,60.1,58.9,60.1,58.2,73,74,71,1.253,50.2,51.0,49.2,0,1.6,290,30,3.0,0.00082,0.00095,56.7,55.2,54,133,0,0.0,.,0.00,0.00
15min,AgWx,bigpiney,439,09JUL2018:07:15:00,61.4,12.99,60.3,60.1,60.5,61.2,60.0,73,77,69,1.363,51.9,53.0,50.2,4.275,2.3,133,18,5.8,0.00105,0.00123,56.7,55.3,54,165,0,0.0,.,0.00,0.00
15min,AgWx,bigpiney,439,09JUL2018:07:30:00,62.4,13.07,62.0,61.7,60.9,61.7,60.1,75,78,72,1.375,53.0,53.5,51.8,0,1.8,186,35,4.5,0.00114,0.00130,56.6,55.2,54,179,0,0.0,.,0.00,0.00
15min,AgWx,bigpiney,439,09JUL2018:07:45:00,63.4,13.34,63.4,63.2,62.3,63.2,61.7,73,75,67,1.386,53.4,54.6,52.0,0.658,0.3,92,47,1.6,0.00159,0.00171,56.6,55.2,54,272,0,0.0,.,0.00,0.00
15min,AgWx,bigpiney,439,09JUL2018:08:00:00,64.8,13.42,65.1,65.0,64.1,65.2,63.2,70,72,66,1.431,54.0,55.6,52.2,0.921,0.3,134,8.1,1.8,0.00170,0.00183,56.5,55.2,54,275,0,0.0,.,0.00,0.00
15min,AgWx,bigpiney,439,09JUL2018:08:15:00,66.5,13.49,67.4,67.0,66.3,67.1,65.0,66,71,54,1.271,54.4,56.8,49.9,1.688,1.3,59,31,4.3,0.00252,0.00277,56.5,55.2,54,402,0,0.0,.,0.00,0.00